Orbital Elements at Epoch 2459000.5 (2020-May-31.0) TDB
Reference: JPL 21 (heliocentric ecliptic J2000)
Element | Value | Uncertainty (1-sigma) | Units |
e | .1274074132735009 | 4.1909e-08 | |
a | 2.460374381018167 | 1.0203e-08 | au |
q | 2.146904445448252 | 1.0772e-07 | au |
i | 5.725649435807955 | 4.4663e-06 | deg |
node | 315.9862747744434 | 3.799e-05 | deg |
peri | 66.35830461281513 | 4.1858e-05 | deg |
M | 282.8442023002629 | 1.9342e-05 | deg |
tp | 2459302.610824511946 (2021-Mar-29.11082451) | 7.6693e-05 | TDB |
period | 1409.614054507678 3.86 | 8.7685e-06 2.401e-08 | d yr |
n | .2553890540810008 | 1.5886e-09 | deg/d |
Q | 2.773844316588082 | 1.1503e-08 | au |
|
| | Orbit Determination Parameters
Additional Information
|